TimeCDT,TemperatureF,Dew PointF,Humidity,Sea Level PressureIn,VisibilityMPH,Wind Direction,Wind SpeedMPH,Gust SpeedMPH,PrecipitationIn,Events,Conditions,WindDirDegrees,DateUTC
12:03 AM,50.0,50.0,100,30.05,1.8,Calm,Calm,-,N/A,,Clear,0,2013-05-11 05:03:00
12:13 AM,50.0,50.0,100,30.04,0.8,Calm,Calm,-,N/A,,Clear,350,2013-05-11 05:13:00
12:43 AM,48.2,48.2,100,30.05,1.8,SSW,2.3,-,N/A,,Clear,200,2013-05-11 05:43:00
12:48 AM,48.2,48.2,100,30.05,2.5,SSW,3.5,-,N/A,,Clear,200,2013-05-11 05:48:00
12:53 AM,48.2,48.2,100,30.06,1.5,SSW,3.5,-,N/A,,Clear,200,2013-05-11 05:53:00
12:58 AM,46.4,46.4,100,30.07,2.5,SSW,3.5,-,N/A,,Clear,200,2013-05-11 05:58:00
1:03 AM,46.4,46.4,100,30.06,8.0,SSW,4.6,-,N/A,,Clear,200,2013-05-11 06:03:00
1:08 AM,46.4,46.4,100,30.06,10.0,SSW,4.6,-,N/A,,Clear,210,2013-05-11 06:08:00
1:33 AM,46.4,46.4,100,30.06,9.0,SSW,3.5,-,N/A,,Clear,200,2013-05-11 06:33:00
1:43 AM,46.4,46.4,100,30.06,10.0,South,3.5,-,N/A,,Clear,180,2013-05-11 06:43:00
1:58 AM,46.4,46.4,100,30.07,10.0,SSW,4.6,-,N/A,,Clear,210,2013-05-11 06:58:00
2:58 AM,46.6,46.6,100,30.06,10.0,Calm,Calm,-,N/A,,Clear,0,2013-05-11 07:58:00
3:08 AM,46.4,46.4,100,30.05,7.0,SSW,2.3,-,N/A,,Clear,200,2013-05-11 08:08:00
3:28 AM,44.6,44.6,100,30.05,9.0,South,2.3,-,N/A,,Clear,170,2013-05-11 08:28:00
3:33 AM,44.6,44.6,100,30.05,3.0,South,1.2,-,N/A,,Clear,190,2013-05-11 08:33:00
3:43 AM,44.6,44.6,100,30.05,6.0,SSW,2.3,-,N/A,,Clear,200,2013-05-11 08:43:00
3:53 AM,44.6,44.6,100,30.05,10.0,South,3.5,-,N/A,,Clear,190,2013-05-11 08:53:00
3:58 AM,45.0,45.0,100,30.06,10.0,South,2.3,-,N/A,,Clear,190,2013-05-11 08:58:00
4:28 AM,44.6,44.6,100,30.04,4.0,South,2.3,-,N/A,,Clear,170,2013-05-11 09:28:00
4:33 AM,44.6,44.6,100,30.04,2.5,South,2.3,-,N/A,,Clear,190,2013-05-11 09:33:00
4:38 AM,44.6,44.6,100,30.04,4.0,South,3.5,-,N/A,,Clear,190,2013-05-11 09:38:00
4:43 AM,44.6,44.6,100,30.04,2.5,SSW,3.5,-,N/A,,Clear,200,2013-05-11 09:43:00
4:53 AM,44.6,44.6,100,30.04,6.0,SSW,3.5,-,N/A,,Clear,200,2013-05-11 09:53:00
4:58 AM,45.3,45.3,100,30.05,4.0,SSW,3.5,-,N/A,,Clear,210,2013-05-11 09:58:00
5:03 AM,44.6,44.6,100,30.04,2.5,SSW,4.6,-,N/A,,Clear,210,2013-05-11 10:03:00
5:08 AM,44.6,44.6,100,30.04,3.0,SSW,4.6,-,N/A,,Clear,210,2013-05-11 10:08:00
5:18 AM,44.6,44.6,100,30.04,1.5,SSW,5.8,-,N/A,,Clear,210,2013-05-11 10:18:00
5:23 AM,44.6,44.6,100,30.03,1.0,SSW,5.8,-,N/A,,Clear,210,2013-05-11 10:23:00
5:33 AM,44.6,44.6,100,30.04,1.8,SW,4.6,-,N/A,,Clear,220,2013-05-11 10:33:00
5:38 AM,44.6,44.6,100,30.04,3.0,SW,2.3,-,N/A,,Clear,220,2013-05-11 10:38:00
5:43 AM,44.6,44.6,100,30.04,1.0,SSW,4.6,-,N/A,,Clear,200,2013-05-11 10:43:00
5:48 AM,44.6,44.6,100,30.04,0.5,SSW,4.6,-,N/A,Fog,Fog,210,2013-05-11 10:48:00
5:55 AM,44.6,44.6,100,30.04,0.5,SW,3.5,-,N/A,Fog,Fog,220,2013-05-11 10:55:00
5:58 AM,43.9,43.9,100,30.06,0.5,SW,3.5,-,0.00,Fog,Fog,230,2013-05-11 10:58:00
6:03 AM,44.6,44.6,100,30.05,1.2,WSW,2.3,-,N/A,,Clear,240,2013-05-11 11:03:00
6:04 AM,44.6,44.6,100,30.05,1.5,WSW,2.3,-,N/A,,Clear,240,2013-05-11 11:04:00
6:09 AM,44.6,44.6,100,30.05,7.0,SW,2.3,-,N/A,,Clear,230,2013-05-11 11:09:00
6:58 AM,47.8,47.8,100,30.06,10.0,West,6.9,-,0.00,,Clear,260,2013-05-11 11:58:00
7:58 AM,54.0,54.0,100,30.07,10.0,West,4.6,-,N/A,,Clear,260,2013-05-11 12:58:00
8:58 AM,58.8,53.8,83,30.08,10.0,NW,16.1,24.2,N/A,,Clear,310,2013-05-11 13:58:00
9:58 AM,60.4,45.0,57,30.11,10.0,NNW,19.6,27.6,0.01,,Clear,340,2013-05-11 14:58:00
10:58 AM,61.3,35.4,38,30.13,10.0,North,23.0,31.1,N/A,,Clear,350,2013-05-11 15:58:00
11:58 AM,62.4,35.8,37,30.15,10.0,North,18.4,25.3,N/A,,Clear,350,2013-05-11 16:58:00
12:58 PM,62.8,36.7,38,30.16,10.0,North,18.4,29.9,N/A,,Clear,350,2013-05-11 17:58:00
1:15 PM,62.6,37.4,39,30.15,10.0,NW,19.6,24.2,N/A,,Clear,320,2013-05-11 18:15:00
1:58 PM,64.0,36.5,36,30.17,10.0,North,18.4,26.5,N/A,,Clear,360,2013-05-11 18:58:00
2:34 PM,64.4,35.6,34,30.16,10.0,NW,20.7,26.5,N/A,,Clear,320,2013-05-11 19:34:00
2:58 PM,64.9,34.2,32,30.17,10.0,NNW,16.1,27.6,N/A,,Clear,340,2013-05-11 19:58:00
3:58 PM,65.1,33.6,31,30.17,10.0,NNW,16.1,26.5,N/A,,Clear,330,2013-05-11 20:58:00
3:59 PM,64.4,33.8,32,30.16,10.0,North,16.1,26.5,N/A,,Clear,350,2013-05-11 20:59:00
4:58 PM,64.8,34.3,32,30.17,10.0,NNW,15.0,23.0,N/A,,Clear,330,2013-05-11 21:58:00
5:08 PM,64.4,32.0,30,30.16,10.0,NNW,18.4,-,N/A,,Clear,330,2013-05-11 22:08:00
5:58 PM,63.3,29.7,28,30.17,10.0,NW,16.1,23.0,N/A,,Clear,320,2013-05-11 22:58:00
6:58 PM,61.3,29.5,30,30.17,10.0,North,12.7,24.2,N/A,,Clear,350,2013-05-11 23:58:00
7:58 PM,57.7,29.8,35,30.19,10.0,North,11.5,-,N/A,,Clear,350,2013-05-12 00:58:00
8:58 PM,52.0,34.3,51,30.20,10.0,North,8.1,-,N/A,,Clear,360,2013-05-12 01:58:00
9:58 PM,47.1,34.0,60,30.22,10.0,North,4.6,-,N/A,,Clear,10,2013-05-12 02:58:00
10:58 PM,47.1,32.5,57,30.24,10.0,North,6.9,-,N/A,,Clear,350,2013-05-12 03:58:00
11:58 PM,44.2,33.3,65,30.24,10.0,NNW,4.6,-,N/A,,Clear,340,2013-05-12 04:58:00